Theta_e
301 301 302 302 302 302 303 303 303 303 303 303 303 302 302 302 302 302 302 302 302 303 303 303 303 303 303 303 303 304 305 306 308 309 311 312 314 314 315 316 316 316
300 300 300 301 301 301 301 301 301 301 301 301 301 301 302 301 301 301 302 302 302 302 302 302 302 302 302 303 303 303 303 303 304 304 305 306 307 309 310 310 311 311
298 298 298 299 299 299 299 299 299 299 300 300 300 300 300 300 300 300 300 300 301 301 301 301 301 302 302 302 302 302 302 303 303 303 303 303 304 305 305 306 307 308
296 296 296 297 297 297 297 297 297 297 298 298 298 298 298 298 299 299 299 299 299 299 300 300 300 301 301 301 301 302 302 302 302 302 302 303 303 303 304 304 304 305
296 296 296 296 296 296 296 296 296 296 296 297 297 297 297 297 297 297 298 298 298 298 299 299 299 299 300 300 300 301 301 301 301 301 301 302 302 302 303 303 303 304
295 295 295 295 295 295 295 295 296 296 296 296 296 296 296 296 297 297 297 297 297 298 298 298 298 298 299 299 299 300 300 300 301 301 301 301 301 301 302 302 303 303
294 294 294 294 294 294 294 294 294 294 294 294 295 295 295 295 295 296 296 296 296 297 297 297 297 298 298 298 299 299 299 299 300 300 300 301 301 301 301 301 301 302
293 293 293 293 293 293 293 293 293 293 293 293 293 293 293 293 294 294 294 294 295 295 295 296 296 296 297 297 298 298 298 299 299 299 300 300 300 301 301 301 301 301
292 292 292 292 292 292 292 292 292 292 292 292 292 292 292 292 292 293 293 293 293 294 294 294 294 295 295 296 296 297 297 298 298 299 299 299 299 300 300 300 300 300
291 291 291 291 291 291 291 291 291 291 291 291 291 291 291 291 291 291 292 292 292 292 292 293 293 293 294 294 295 295 296 296 297 298 298 298 299 299 300 300 300 300
290 290 291 291 291 291 291 291 291 291 291 290 290 290 290 290 291 291 291 291 291 291 291 291 292 292 292 293 293 294 294 295 295 296 297 298 298 298 299 299 299 300
290 290 290 290 290 290 290 290 290 290 290 290 290 290 290 290 290 290 290 290 290 290 290 290 291 291 291 291 292 292 293 293 294 294 295 296 297 297 298 298 299 299
290 290 290 290 290 290 290 290 290 290 290 290 290 290 290 290 290 290 290 290 290 290 290 290 289 290 290 290 291 291 292 292 293 293 294 294 295 296 297 297 298 298
289 289 289 289 289 289 290 290 290 290 290 290 290 290 290 290 290 290 290 290 290 290 289 289 289 289 289 289 290 290 291 291 291 292 292 293 294 294 295 296 297 297
289 289 289 289 289 289 289 289 289 289 289 289 290 290 290 290 290 290 290 289 289 289 289 289 288 289 288 289 289 289 290 290 290 291 291 292 292 293 293 294 295 296
289 289 289 289 289 289 289 289 289 289 289 289 289 289 289 289 289 289 289 289 289 288 288 288 288 288 288 288 288 288 289 289 289 290 290 291 291 292 292 293 294 294
289 289 289 289 289 289 288 288 288 288 288 288 288 288 288 288 288 288 288 288 288 288 288 288 288 288 287 288 288 288 288 288 289 289 289 290 290 291 291 292 292 293
289 288 288 288 288 288 288 288 288 288 288 288 287 287 287 287 287 287 287 287 287 287 287 287 287 287 287 287 287 287 288 288 288 289 289 289 290 290 290 291 291 292
288 288 288 288 287 287 287 287 287 287 287 287 287 287 287 287 287 287 287 287 287 287 287 287 287 287 287 287 287 287 287 287 287 288 288 289 289 289 290 290 291 291
288 288 288 287 287 286 286 286 286 286 286 286 286 286 286 286 286 286 286 286 286 286 286 286 286 286 286 286 286 286 287 287 287 287 288 288 288 289 289 289 290 290
287 287 287 287 287 286 286 286 286 286 286 286 286 286 286 286 286 286 286 286 286 286 286 286 286 286 286 286 286 286 286 286 287 287 287 287 288 288 288 289 289 289
287 287 287 287 287 286 286 285 286 286 286 286 286 286 286 286 286 286 286 286 286 286 286 286 286 286 286 286 286 286 286 286 286 286 286 287 287 287 287 288 289 289
286 286 286 287 286 286 286 285 285 285 285 286 286 286 286 286 285 286 286 286 286 286 286 286 286 286 286 286 286 286 286 286 286 286 286 286 286 286 287 287 288 289
286 286 286 286 286 286 286 285 285 285 285 285 285 285 285 285 285 285 285 285 285 285 285 285 285 285 285 285 285 285 286 286 286 286 286 286 286 286 286 286 287 288
286 286 286 286 286 286 286 285 285 285 285 285 285 285 285 285 285 285 285 285 285 285 285 285 285 285 285 285 285 285 285 285 285 285 285 286 286 286 286 286 286 287
286 286 286 286 286 286 286 285 285 285 285 285 285 285 285 285 285 285 285 285 285 285 285 285 285 285 285 285 285 285 285 285 285 285 285 285 285 285 285 286 286 286
Wind_Speed
12 11 10 10 10 10 10 10 10 10 8 7 6 6 5 5 5 5 6 7 9 10 12 13 15 18 20 22 25 27 30 32 33 34 34 35 35 35 36 36 36 36
11 11 10 9 8 7 7 6 5 4 3 2 2 2 3 3 4 5 5 6 6 7 8 9 10 11 13 15 17 19 21 24 26 29 31 33 34 35 35 35 35 36
10 9 8 6 6 5 4 4 3 2 2 1 1 2 3 4 5 6 7 7 8 8 8 8 9 9 10 11 12 13 15 17 19 21 24 27 29 31 32 33 34 34
8 7 6 4 3 2 2 1 1 1 1 2 3 3 5 5 6 7 8 8 9 9 9 9 10 10 10 11 11 11 12 13 14 15 18 20 22 25 27 28 30 31
6 5 4 2 1 1 1 2 3 3 4 4 5 6 7 7 8 9 9 10 10 11 11 11 12 12 12 12 12 12 12 12 13 13 15 16 17 19 21 23 25 27
4 3 2 2 2 3 4 4 6 6 7 8 8 9 9 10 11 11 11 12 12 12 13 13 14 14 14 14 14 14 13 13 14 14 15 15 16 16 18 20 22 23
3 2 1 3 3 4 5 6 7 8 9 10 11 11 12 13 14 14 15 15 15 15 16 16 16 16 16 16 16 16 16 16 16 16 16 16 17 17 17 19 21 22
1 1 2 4 4 5 7 7 8 9 9 11 11 12 14 14 15 16 17 17 18 18 18 18 19 19 19 19 19 19 18 18 18 18 18 18 18 18 18 19 20 21
1 2 3 4 5 7 7 8 9 9 10 11 12 13 14 14 15 16 17 18 19 20 20 21 21 21 21 22 21 21 21 20 20 20 20 20 20 20 19 19 20 21
1 1 2 3 5 6 7 8 8 9 10 10 11 12 13 13 14 15 16 17 18 19 20 21 22 22 23 23 23 23 23 22 22 22 22 22 22 21 21 21 21 22
3 3 3 3 4 5 6 7 7 8 9 10 10 11 12 13 14 15 16 16 17 18 19 20 21 22 23 23 24 24 24 24 24 24 24 23 23 23 23 23 22 23
4 4 3 3 3 4 5 5 6 7 8 9 10 11 12 13 14 14 16 16 17 18 19 19 20 21 21 22 23 24 25 25 25 25 25 25 25 25 24 24 24 24
4 3 2 2 2 3 3 4 5 6 7 8 9 10 11 12 13 14 15 16 17 18 19 19 20 21 21 21 22 23 24 25 25 26 26 26 26 26 26 26 26 25
4 3 2 1 2 2 3 3 4 5 6 7 9 10 11 12 13 14 15 16 17 18 19 20 20 21 21 22 22 23 24 24 25 25 26 26 26 26 26 27 27 27
4 2 2 2 3 4 4 5 5 6 6 7 8 9 10 12 13 14 15 16 17 18 19 20 20 21 22 22 23 24 25 25 25 26 26 26 27 27 27 27 27 28
3 2 2 2 3 4 5 6 6 7 7 7 7 8 9 11 12 13 14 15 17 18 19 19 20 21 22 22 23 24 25 26 26 26 26 27 27 27 27 28 28 28
2 1 1 2 3 3 4 5 6 7 7 8 8 8 9 10 11 12 13 14 15 16 17 18 19 20 21 22 22 23 24 25 26 26 26 27 28 28 29 29 29 29
1 1 1 2 2 3 4 5 5 6 7 8 8 9 9 10 10 11 12 12 13 14 15 16 17 18 19 20 21 22 24 25 26 26 27 27 28 28 29 30 30 30
1 1 2 3 3 3 4 4 5 6 7 8 8 9 9 10 10 11 11 12 12 13 13 15 16 17 18 19 21 22 23 24 25 26 27 27 28 29 29 30 31 31
4 2 2 3 3 4 5 5 6 6 6 7 8 9 9 10 10 10 10 11 11 12 13 14 15 17 18 19 20 21 23 24 25 26 26 27 28 29 30 30 31 32
6 4 2 3 4 5 5 6 6 7 7 8 8 9 9 10 10 10 10 10 11 11 12 13 15 16 17 18 19 20 21 22 24 25 26 27 28 29 29 30 31 31
8 6 3 3 4 5 6 7 7 7 8 8 9 9 10 10 10 10 10 10 10 12 12 13 14 15 16 17 19 20 21 22 23 24 25 26 27 28 29 29 30 30
9 7 5 4 4 6 7 7 8 8 8 9 9 10 10 10 11 11 11 11 11 12 13 12 13 14 15 16 18 19 21 22 23 24 25 26 27 27 28 28 29 29
10 8 6 5 5 6 7 8 8 9 9 10 10 10 11 11 12 12 12 13 13 13 13 13 12 13 15 16 17 18 20 21 22 23 25 26 26 27 27 28 28 28
10 9 7 6 6 7 8 9 9 10 10 11 11 11 12 12 13 13 14 14 15 14 14 14 13 13 15 16 16 17 19 20 21 22 24 25 26 27 27 28 28 27
11 10 8 8 7 8 9 10 11 11 11 12 12 12 13 13 14 14 15 15 15 15 14 15 15 14 15 16 17 17 18 19 20 22 23 24 25 26 27 28 28 27
Wind_Direction
170 173 175 180 189 199 211 220 230 237 243 250 259 273 287 299 303 301 300 297 292 289 285 283 280 278 275 273 271 269 268 266 266 265 265 266 266 267 267 268 268 269
150 150 150 148 145 144 147 153 165 179 190 208 237 282 315 332 336 336 340 340 333 324 317 310 303 297 292 288 284 281 277 274 271 269 268 267 267 267 268 268 269 270
143 139 137 136 131 128 124 120 115 113 103 66 27 358 345 343 342 342 343 344 346 344 340 336 332 325 318 311 305 300 295 290 285 279 275 272 271 270 269 270 270 270
137 135 131 127 124 119 108 93 53 8 349 339 334 330 329 329 330 332 331 332 335 335 336 336 335 335 333 330 325 319 315 311 305 298 290 284 280 277 274 273 272 272
143 145 146 150 168 215 273 288 294 298 300 301 303 307 307 306 307 310 313 315 317 319 321 323 324 325 326 327 328 326 324 322 318 314 308 303 297 291 286 282 279 277
158 173 186 221 246 263 274 280 284 288 293 294 295 298 299 299 300 301 303 305 308 309 310 312 313 314 316 317 318 320 321 321 321 320 318 317 314 308 301 295 289 285
174 199 237 266 277 285 287 289 292 293 295 296 298 300 300 300 300 301 302 303 304 307 307 308 309 310 311 311 312 313 314 315 316 317 317 318 319 317 314 308 302 296
196 291 300 301 304 304 305 306 306 305 306 306 307 306 305 305 305 305 306 305 305 306 306 307 308 309 309 309 309 310 311 312 312 313 313 313 314 315 316 315 311 308
341 315 313 317 316 314 317 319 318 319 319 318 319 317 316 316 314 313 312 311 311 310 310 309 309 309 308 308 308 309 309 310 311 311 312 311 311 311 311 312 312 311
87 18 357 345 332 331 334 333 335 337 336 336 335 333 332 331 327 325 323 321 319 316 314 313 312 311 309 308 309 309 308 308 309 309 311 311 311 311 311 310 310 310
100 75 46 16 356 355 353 349 353 353 351 351 349 347 347 344 341 338 335 332 329 325 322 320 317 315 312 312 311 309 308 306 306 307 308 309 311 311 311 311 310 309
95 79 58 32 17 8 358 357 359 353 350 350 347 348 348 344 342 340 338 336 333 332 330 327 324 321 318 317 314 311 309 307 305 305 304 306 308 309 311 311 310 310
94 84 71 45 20 357 349 351 347 339 340 340 339 342 341 337 338 336 334 333 331 331 330 329 327 325 323 321 318 315 313 310 308 306 304 304 304 305 307 308 309 310
99 86 70 33 348 336 330 323 319 321 325 328 332 333 332 331 333 331 329 330 329 329 329 329 328 326 325 323 321 319 318 316 315 313 310 309 307 306 306 306 307 308
87 59 27 355 338 330 322 316 316 317 315 320 324 325 327 329 328 328 329 330 329 328 328 329 328 328 327 327 325 323 322 321 320 319 317 315 313 311 309 307 306 306
80 48 18 351 334 325 323 324 322 318 315 318 320 320 324 325 324 328 329 328 328 329 329 330 330 330 331 331 329 327 325 324 323 322 322 321 318 316 314 312 310 308
86 62 20 337 320 311 312 314 312 313 314 314 315 318 321 321 323 326 326 325 327 328 330 331 330 331 332 332 331 330 329 327 326 327 327 325 323 322 319 317 315 312
78 25 347 327 314 305 302 299 297 301 303 303 307 311 314 317 320 322 322 324 328 329 331 332 331 331 332 331 331 331 330 329 329 330 330 329 328 327 325 323 320 318
227 295 326 318 312 306 297 293 291 290 292 294 299 302 305 310 314 316 319 322 325 328 331 332 330 331 332 332 332 332 331 330 331 331 331 331 331 330 329 328 326 323
211 240 292 303 306 302 296 292 290 288 288 290 294 296 299 303 304 306 311 315 319 325 329 330 329 330 331 331 332 332 332 331 332 331 332 332 332 332 331 330 329 328
211 225 254 289 302 300 296 294 291 290 289 290 292 293 294 296 297 298 303 308 312 318 325 328 327 326 328 329 330 331 331 331 332 333 334 334 334 334 334 333 333 332
212 219 239 280 301 300 297 295 290 288 290 289 290 291 291 292 293 295 298 302 308 314 320 324 323 322 324 326 327 328 329 331 333 334 335 336 336 337 337 337 338 336
210 214 230 263 290 298 296 293 288 287 287 287 287 288 289 290 291 294 296 300 305 310 314 318 319 318 320 322 324 326 327 329 332 333 335 336 337 338 339 340 340 338
215 220 231 255 279 292 293 289 287 287 285 285 286 286 287 288 291 295 298 300 304 307 310 313 316 316 317 318 320 322 324 326 328 331 333 333 334 336 338 339 340 339
224 228 237 254 273 287 292 290 288 288 286 285 285 285 286 289 291 294 296 298 301 304 307 310 312 313 313 313 316 318 320 322 324 326 327 329 330 332 335 337 338 337
226 231 239 253 268 281 290 292 291 290 288 286 286 286 287 289 290 292 294 296 298 300 304 307 308 310 310 311 313 316 317 319 321 323 324 325 327 329 331 333 335 335